[[{"header":{"parameterUnit":"m.s-1","parameterCategory":2,"la1":30.2991,"la2":30.254,"lo1":-89.0895,"lo2":-89.0444,"dy":0.0017,"dx":0.0017,"nx":28,"ny":28,"refTime":"2024-02-29T09:00:00:Z","depth":"0","parameterNumber":2,"parameterNumberName":"U-component_of_CURRENTS"},"data":[0,0,0,0,0,0,0,0,0,0,0,0,0,0,0,0,0,0,0,0,0,0,0,0,0,0,0,0,0,0,0,0,0,0,0,0,0,0,0,0,0,0,0,0,0,0,0,0,0,0,0,0,0,0,0,0,0,0,-0.2102,-0.2103,0,-0.2101,-0.2101,-0.21,-0.2076,-0.2075,-0.2075,-0.2075,-0.1999,-0.1997,-0.1996,0,0,0,0,0,0,0,0,0,0,0,0,0,-0.2026,-0.2028,-0.2102,-0.2103,-0.2103,-0.2101,-0.2101,-0.21,-0.2076,-0.2075,-0.2075,-0.2075,-0.2,-0.1998,-0.1995,0,0,0,0,0,0,0,0,0,0,0,0,0,-0.2041,-0.2028,-0.2102,-0.2094,-0.2094,-0.2101,-0.2101,-0.21,-0.2076,-0.2075,-0.2075,-0.2075,-0.2,-0.1998,-0.1995,-0.1985,0,0,-0.1987,-0.1986,0,0,0,0,0,0,0,0,-0.2041,-0.2044,-0.2095,-0.2095,-0.2094,-0.2092,-0.2046,-0.2059,-0.2076,-0.2078,-0.2075,-0.2075,-0.2027,-0.2022,-0.2017,-0.1981,-0.1978,-0.1987,-0.1985,-0.1984,-0.1983,0,0,0,0,0,0,0,-0.204,-0.2043,-0.2097,-0.2095,-0.2095,-0.2071,-0.2073,-0.2048,-0.2049,-0.2077,-0.2077,-0.2084,-0.2025,-0.202,-0.2015,-0.1977,-0.1987,-0.1984,-0.1983,-0.1981,-0.1929,-0.1929,0,0,0,0,0,0,-0.2053,-0.2043,-0.2097,-0.2098,-0.2071,-0.2073,-0.2075,-0.2089,-0.2051,-0.2047,-0.2084,-0.2083,-0.2024,-0.2018,-0.2012,-0.2012,-0.1984,-0.1981,-0.198,-0.1928,-0.1929,-0.1929,0,0,0,0,0,0,-0.2051,-0.2058,-0.2097,-0.2073,-0.2077,-0.2076,-0.2092,-0.209,-0.2086,-0.2058,-0.2051,-0.2084,-0.2024,-0.2016,-0.1996,-0.2008,-0.198,-0.1978,-0.1928,-0.1928,-0.1929,-0.2003,0,0,0,0,0,0,-0.2049,-0.2058,-0.2063,-0.2075,-0.2079,-0.2106,-0.2092,-0.209,-0.2093,-0.2091,-0.2055,-0.2047,-0.2023,-0.2,-0.1993,-0.2004,-0.1975,-0.1928,-0.1928,-0.1929,-0.2001,-0.2006,-0.2011,0,0,0,0,0,-0.2047,-0.2057,-0.2064,-0.207,-0.2091,-0.2107,-0.2106,-0.21,-0.2094,-0.2094,-0.2072,-0.2049,-0.1998,-0.1998,-0.199,-0.2001,-0.1928,-0.1928,-0.1929,-0.1998,-0.2005,-0.2011,0,0,0,0,0,0,-0.2019,-0.2057,-0.2064,-0.2083,-0.2098,-0.2104,-0.2105,-0.2105,-0.2088,-0.2083,-0.2052,-0.2043,-0.203,-0.2003,-0.2004,-0.1985,-0.1958,-0.1957,-0.2014,-0.202,-0.2025,-0.2039,-0.1973,0,0,0,0,0,-0.2021,-0.2041,-0.207,-0.2083,-0.2094,-0.2101,-0.2104,-0.2106,-0.21,-0.2093,-0.2073,-0.2046,-0.2025,-0.2014,-0.1988,-0.1979,-0.1979,-0.1978,-0.1984,-0.1988,-0.1993,-0.2008,-0.2016,-0.1931,-0.1931,-0.1931,0,0,-0.2014,-0.2037,-0.2047,-0.2079,-0.2087,-0.2113,-0.21,-0.2113,-0.2129,-0.2086,-0.209,-0.2062,-0.2026,-0.2018,-0.2009,-0.1997,-0.2016,-0.1989,-0.1994,-0.1996,-0.201,-0.2019,-0.2026,-0.1931,-0.1931,-0.1931,0,0,-0.2016,-0.2033,-0.2056,-0.2077,-0.2104,-0.2114,-0.2122,-0.2138,-0.2137,-0.2141,-0.2115,-0.2098,-0.2066,-0.205,-0.2036,-0.2052,-0.2042,-0.2041,-0.2081,-0.2097,-0.2104,-0.2111,-0.2144,-0.2153,-0.2045,-0.2046,-0.2046,0,-0.2004,-0.2046,-0.206,-0.2092,-0.2116,-0.212,-0.2154,-0.2156,-0.2161,-0.2171,-0.2148,-0.2121,-0.2084,-0.2086,-0.2087,-0.2066,-0.208,-0.2064,-0.2106,-0.2113,-0.2118,-0.215,-0.2159,-0.2049,-0.2049,-0.2048,-0.2048,0,-0.2034,-0.2068,-0.2082,-0.2132,-0.2153,-0.218,-0.2204,-0.2217,-0.2217,-0.2224,-0.2225,-0.2181,-0.2167,-0.2151,-0.212,-0.2141,-0.2142,-0.2113,-0.2098,-0.2132,-0.2163,-0.2171,-0.2055,-0.2053,-0.2052,-0.2051,0,0,-0.2009,-0.209,-0.2095,-0.2133,-0.2182,-0.2205,-0.2239,-0.2278,-0.231,-0.2295,-0.233,-0.228,-0.2261,-0.2241,-0.2204,-0.2208,-0.2255,-0.218,-0.2179,-0.2226,-0.2313,-0.2325,-0.2335,-0.2241,-0.2242,-0.2243,-0.2327,0,-0.2029,-0.2099,-0.2136,-0.22,-0.2241,-0.2273,-0.2311,-0.2342,-0.2356,-0.2387,-0.2355,-0.2356,-0.2295,-0.2285,-0.2284,-0.2256,-0.2277,-0.2236,-0.226,-0.2261,-0.2279,-0.2345,-0.2299,-0.237,-0.2335,-0.2336,-0.2337,0,-0.2046,-0.2098,-0.2166,-0.2257,-0.2279,-0.2312,-0.2384,-0.2418,-0.246,-0.2473,-0.2476,-0.2453,-0.2445,-0.2386,-0.2383,-0.2364,-0.2347,-0.2329,-0.2331,-0.232,-0.2288,-0.2323,-0.2386,-0.2375,-0.2349,-0.2348,-0.2348,0,-0.2022,-0.2117,-0.2173,-0.2204,-0.2301,-0.2335,-0.2378,-0.2435,-0.2475,-0.2519,-0.255,-0.2544,-0.2534,-0.2515,-0.2462,-0.2431,-0.2473,-0.2426,-0.2433,-0.2434,-0.2387,-0.2382,-0.245,-0.2445,-0.2445,-0.2445,-0.2445,0,-0.2032,-0.2079,-0.2165,-0.2198,-0.2271,-0.2332,-0.24,-0.245,-0.2517,-0.2575,-0.2578,-0.261,-0.2564,-0.2572,-0.2523,-0.2516,-0.2525,-0.2464,-0.2462,-0.2413,-0.241,-0.2388,-0.2377,-0.2448,-0.2447,-0.2447,-0.2446,0,-0.2001,-0.2058,-0.213,-0.2231,-0.226,-0.2305,-0.2408,-0.246,-0.2527,-0.2603,-0.2617,-0.2667,-0.2685,-0.2657,-0.2638,-0.2597,-0.2559,-0.2576,-0.2533,-0.2525,-0.2511,-0.2504,-0.2548,-0.2482,-0.2609,-0.261,-0.2611,0,-0.1994,-0.2022,-0.2131,-0.2166,-0.221,-0.2284,-0.234,-0.2441,-0.2504,-0.2631,-0.267,-0.2722,-0.2753,-0.276,-0.2704,-0.2677,-0.2609,-0.2618,-0.254,-0.2534,-0.2525,-0.2492,-0.2429,-0.2515,-0.2515,-0.2515,-0.2515,0,-0.1969,-0.1999,-0.2055,-0.2124,-0.2185,-0.2264,-0.235,-0.2402,-0.253,-0.2609,-0.2713,-0.275,-0.2799,-0.277,-0.2747,-0.269,-0.2577,-0.2617,-0.2612,-0.2474,-0.2439,-0.2366,-0.2452,-0.2515,-0.2515,-0.2515,-0.2515,-0.2515,-0.1927,-0.1951,-0.2002,-0.2068,-0.2137,-0.2198,-0.2215,-0.2338,-0.2424,-0.2515,-0.2651,-0.2699,-0.2778,-0.2742,-0.2712,-0.2641,-0.2593,-0.2554,-0.2556,-0.2531,-0.2441,-0.2546,-0.26,-0.26,-0.2601,-0.2601,-0.2602,0,-0.1862,-0.1887,-0.1937,-0.1995,-0.2022,-0.209,-0.2185,-0.2177,-0.224,-0.2399,-0.2482,-0.2624,-0.2642,-0.2685,-0.2689,-0.2606,-0.2494,-0.2526,-0.2453,-0.2392,-0.2494,-0.2462,-0.2485,-0.2485,-0.2485,-0.2485,-0.2485,-0.2485,-0.1818,-0.1827,-0.1856,-0.1852,-0.1881,-0.1852,-0.1869,-0.1898,-0.1974,-0.2064,-0.2197,-0.2323,-0.2436,-0.2762,-0.2715,-0.2598,-0.2487,-0.2437,-0.2403,-0.2473,-0.2474,-0.2475,-0.2443,-0.2462,-0.2462,-0.2233,-0.2231,-0.223]},{"header":{"parameterUnit":"m.s-1","parameterCategory":2,"la1":30.2991,"la2":30.254,"lo1":-89.0895,"lo2":-89.0444,"dy":0.0017,"dx":0.0017,"nx":28,"ny":28,"refTime":"2024-02-29T09:00:00:Z","depth":"0","parameterNumber":3,"parameterNumberName":"V-component_of_CURRENTS"},"data":[0,0,0,0,0,0,0,0,0,0,0,0,0,0,0,0,0,0,0,0,0,0,0,0,0,0,0,0,0,0,0,0,0,0,0,0,0,0,0,0,0,0,0,0,0,0,0,0,0,0,0,0,0,0,0,0,0,0,-0.0019,-0.0018,0,0.0075,0.0076,0.0078,0.0134,0.0134,0.0134,0.0134,0.0226,0.0229,0.0231,0,0,0,0,0,0,0,0,0,0,0,0,0,-0.0091,-0.009,-0.0019,-0.0018,-0.0017,0.0075,0.0077,0.0078,0.0134,0.0134,0.0134,0.0134,0.0225,0.0228,0.0232,0,0,0,0,0,0,0,0,0,0,0,0,0,-0.0031,-0.009,-0.0019,0.0019,0.0023,0.0075,0.0077,0.0079,0.0134,0.0134,0.0134,0.0134,0.0224,0.0228,0.0232,0.0259,0,0,0.0244,0.0245,0,0,0,0,0,0,0,0,-0.0034,-0.0028,0.0012,0.0016,0.0021,0.0089,0.0085,0.0138,0.0134,0.0096,0.0134,0.0133,0.0178,0.0185,0.0209,0.0264,0.0268,0.0244,0.0246,0.0248,0.0249,0,0,0,0,0,0,0,-0.0039,-0.0031,0.0023,0.0013,0.0018,0.0051,0.0059,0.0096,0.014,0.0099,0.0103,0.0107,0.0181,0.0205,0.0212,0.0269,0.0244,0.0247,0.025,0.0251,0.0373,0.0374,0,0,0,0,0,0,-0.0061,-0.0035,0.0019,0.0025,-0.0012,0.0052,0.0061,0.0071,0.014,0.0149,0.0107,0.0109,0.0199,0.0207,0.0215,0.0258,0.0248,0.0252,0.0254,0.0372,0.0374,0.0375,0,0,0,0,0,0,-0.0063,-0.0057,0.0016,-0.0007,0.0004,0.0052,0.0063,0.0072,0.0098,0.0144,0.0154,0.0122,0.0199,0.021,0.0253,0.0262,0.0253,0.0257,0.0371,0.0373,0.0374,0.0339,0,0,0,0,0,0,-0.0065,-0.0058,-0.0059,-0.0008,0.0004,0.0041,0.0063,0.0074,0.0099,0.0103,0.016,0.0169,0.02,0.0247,0.0257,0.0267,0.026,0.037,0.0372,0.0374,0.0339,0.0339,0.0339,0,0,0,0,0,-0.0068,-0.0073,-0.0059,-0.0053,0.0002,0.004,0.005,0.0087,0.0099,0.011,0.0153,0.0167,0.0265,0.0251,0.0262,0.0273,0.0369,0.0372,0.0374,0.0339,0.0339,0.0339,0,0,0,0,0,0,-0.0108,-0.0066,-0.005,-0.0043,-0.0007,0.0048,0.0055,0.0085,0.013,0.013,0.018,0.0192,0.0233,0.0261,0.0244,0.0316,0.032,0.0324,0.029,0.029,0.029,0.0273,0.0263,0,0,0,0,0,-0.0117,-0.0109,-0.0062,-0.0058,-0.0043,0.0007,0.0026,0.0053,0.0097,0.0117,0.0158,0.0205,0.0252,0.0275,0.0316,0.0354,0.0385,0.037,0.037,0.037,0.0365,0.0423,0.0427,0.0381,0.0381,0.0381,0,0,-0.0135,-0.0111,-0.0107,-0.0066,-0.0037,-0.0017,0.002,0.0043,0.0067,0.0118,0.0159,0.0204,0.0262,0.0306,0.0327,0.033,0.04,0.0373,0.0372,0.0367,0.0425,0.0429,0.0433,0.0383,0.0383,0.0382,0,0,-0.017,-0.0142,-0.0147,-0.0115,-0.0077,-0.0041,-0.0037,0.0019,0.0052,0.0097,0.0143,0.0194,0.0258,0.0309,0.0341,0.0368,0.0397,0.0378,0.0366,0.0422,0.0426,0.0429,0.0473,0.0481,0.038,0.038,0.038,0,-0.0194,-0.019,-0.0143,-0.0134,-0.0116,-0.0056,-0.0053,-0.0005,0.006,0.0089,0.01,0.0216,0.0262,0.0332,0.0342,0.0367,0.0396,0.0357,0.042,0.0424,0.0429,0.0473,0.0482,0.0378,0.0379,0.0379,0.0379,0,-0.0225,-0.022,-0.022,-0.0188,-0.0156,-0.0146,-0.0078,-0.0044,-0.0001,0.0051,0.0124,0.0198,0.0265,0.0294,0.0326,0.0386,0.0395,0.0409,0.0413,0.0431,0.0477,0.0487,0.0376,0.0377,0.0377,0.0378,0,0,-0.0284,-0.0253,-0.0251,-0.0252,-0.0185,-0.0168,-0.0121,-0.0061,-0.0035,0.0045,0.0091,0.0189,0.0231,0.0272,0.0328,0.0381,0.0441,0.0401,0.0405,0.0432,0.0554,0.0622,0.064,0.0462,0.0463,0.0464,0.0573,0,-0.0326,-0.0345,-0.0298,-0.0302,-0.0307,-0.0227,-0.0188,-0.0119,-0.0054,0.0008,0.0112,0.0172,0.0225,0.0252,0.0319,0.0412,0.0466,0.041,0.0544,0.0548,0.0596,0.0654,0.0725,0.0833,0.0583,0.0584,0.0586,0,-0.0367,-0.0378,-0.0399,-0.0372,-0.0362,-0.0344,-0.0278,-0.0235,-0.0119,-0.0065,0.0027,0.0109,0.0219,0.0247,0.0419,0.0377,0.0458,0.0528,0.0534,0.0615,0.0635,0.0778,0.0861,0.1062,0.0601,0.06,0.0599,0,-0.0446,-0.0441,-0.0469,-0.0457,-0.0412,-0.0398,-0.0366,-0.0265,-0.0231,-0.0114,-0.0075,0.0072,0.0143,0.027,0.0435,0.0421,0.0615,0.0616,0.0754,0.0759,0.0857,0.0869,0.1142,0.0724,0.0724,0.0724,0.0723,0,-0.0507,-0.0526,-0.0516,-0.053,-0.0557,-0.0482,-0.0477,-0.0416,-0.0326,-0.028,-0.0129,-0.0056,0.0149,0.0295,0.0427,0.0639,0.0617,0.0768,0.0803,0.0848,0.0857,0.1065,0.1127,0.0728,0.0727,0.0726,0.0725,0,-0.0585,-0.0573,-0.0614,-0.06,-0.0599,-0.0618,-0.0577,-0.057,-0.0462,-0.0398,-0.0363,-0.015,0.0066,0.0277,0.0504,0.0635,0.0942,0.0887,0.0925,0.0964,0.128,0.1335,0.1581,0.1668,0.1063,0.1065,0.1067,0,-0.0626,-0.0658,-0.0691,-0.0729,-0.0729,-0.0744,-0.0752,-0.066,-0.0634,-0.0448,-0.0419,-0.0186,0.001,0.0391,0.0682,0.0961,0.1061,0.115,0.1148,0.1335,0.1421,0.143,0.1484,0.1261,0.1264,0.1267,0.127,0,-0.0714,-0.0726,-0.0767,-0.0859,-0.0893,-0.0918,-0.0909,-0.0903,-0.0766,-0.0668,-0.0482,-0.0304,0.0136,0.055,0.093,0.1073,0.1307,0.1217,0.1416,0.1615,0.1638,0.1725,0.1136,0.1295,0.1293,0.1291,0.1289,0.1288,-0.0779,-0.0841,-0.0908,-0.0993,-0.1039,-0.1073,-0.1088,-0.1032,-0.0963,-0.0747,-0.0545,-0.0196,0.044,0.103,0.1214,0.1652,0.1545,0.1757,0.1809,0.1801,0.1898,0.1362,0.1556,0.1555,0.1554,0.1553,0.1552,0,-0.0863,-0.0938,-0.1036,-0.1124,-0.1203,-0.1187,-0.1179,-0.1137,-0.1047,-0.074,-0.0491,0.027,0.0865,0.14,0.2049,0.2256,0.2251,0.2323,0.2373,0.2399,0.1955,0.198,0.227,0.227,0.227,0.2269,0.2269,0.2269,-0.0908,-0.1031,-0.1093,-0.1255,-0.131,-0.1363,-0.1356,-0.1237,-0.1013,-0.0485,-0.0008,0.0388,0.1163,0.2237,0.2795,0.2799,0.2958,0.2914,0.2979,0.271,0.2661,0.2614,0.2658,0.3085,0.3086,0.3409,0.3412,0.3415]}],[{"header":{"parameterUnit":"m.s-1","parameterCategory":2,"la1":30.2991,"la2":30.254,"lo1":-89.0895,"lo2":-89.0444,"dy":0.0017,"dx":0.0017,"nx":28,"ny":28,"refTime":"2024-02-29T09:00:00:Z","depth":"2","parameterNumber":2,"parameterNumberName":"U-component_of_CURRENTS"},"data":[0,0,0,0,0,0,0,0,0,0,0,0,0,0,0,0,0,0,0,0,0,0,0,0,0,0,0,0,0,0,0,0,0,0,0,0,0,0,0,0,0,0,0,0,0,0,0,0,0,0,0,0,0,0,0,0,0,0,-0.204,-0.204,0,-0.2039,-0.2038,-0.2038,-0.2015,-0.2015,-0.2015,-0.2015,-0.1941,-0.194,-0.1938,0,0,0,0,0,0,0,0,0,0,0,0,0,-0.1965,-0.1966,-0.2039,-0.204,-0.204,-0.2039,-0.2038,-0.2038,-0.2015,-0.2015,-0.2015,-0.2015,-0.1942,-0.194,-0.1938,0,0,0,0,0,0,0,0,0,0,0,0,0,-0.198,-0.1967,-0.2039,-0.2032,-0.2032,-0.2039,-0.2038,-0.2038,-0.2015,-0.2015,-0.2015,-0.2015,-0.1943,-0.194,-0.1937,-0.1926,0,0,-0.1929,-0.1928,0,0,0,0,0,0,0,0,-0.1979,-0.1982,-0.2033,-0.2033,-0.2032,-0.2031,-0.1985,-0.1998,-0.2015,-0.2017,-0.2015,-0.2015,-0.1968,-0.1963,-0.1958,-0.1922,-0.1919,-0.1929,-0.1927,-0.1926,-0.1925,0,0,0,0,0,0,0,-0.1978,-0.1982,-0.2035,-0.2033,-0.2033,-0.201,-0.2012,-0.1987,-0.1989,-0.2017,-0.2016,-0.2023,-0.1966,-0.1961,-0.1956,-0.1918,-0.1929,-0.1927,-0.1925,-0.1924,-0.1871,-0.1872,0,0,0,0,0,0,-0.1991,-0.1981,-0.2035,-0.2035,-0.201,-0.2012,-0.2014,-0.2028,-0.1991,-0.1987,-0.2024,-0.2023,-0.1965,-0.1959,-0.1953,-0.1955,-0.1926,-0.1924,-0.1922,-0.1871,-0.1872,-0.1872,0,0,0,0,0,0,-0.199,-0.1996,-0.2035,-0.2011,-0.2015,-0.2015,-0.203,-0.2028,-0.2025,-0.1998,-0.1991,-0.2024,-0.1965,-0.1957,-0.1938,-0.1951,-0.1922,-0.192,-0.1871,-0.1871,-0.1872,-0.1946,0,0,0,0,0,0,-0.1987,-0.1996,-0.2002,-0.2012,-0.2017,-0.2043,-0.2031,-0.2028,-0.2033,-0.2031,-0.1996,-0.1988,-0.1964,-0.1942,-0.1935,-0.1947,-0.1918,-0.1871,-0.1871,-0.1872,-0.1943,-0.1949,-0.1954,0,0,0,0,0,-0.1985,-0.1995,-0.2002,-0.2008,-0.2028,-0.2044,-0.2044,-0.2039,-0.2033,-0.2034,-0.2013,-0.199,-0.194,-0.1941,-0.1932,-0.1943,-0.187,-0.1871,-0.1871,-0.1941,-0.1948,-0.1954,0,0,0,0,0,0,-0.1958,-0.1995,-0.2002,-0.2022,-0.2036,-0.2042,-0.2043,-0.2043,-0.2028,-0.2024,-0.1993,-0.1984,-0.1972,-0.1945,-0.1946,-0.1928,-0.1901,-0.19,-0.1957,-0.1963,-0.1968,-0.1981,-0.1916,0,0,0,0,0,-0.196,-0.198,-0.2008,-0.2021,-0.2032,-0.2039,-0.2042,-0.2045,-0.2039,-0.2033,-0.2013,-0.1987,-0.1967,-0.1956,-0.193,-0.1921,-0.1921,-0.1921,-0.1926,-0.1931,-0.1936,-0.1951,-0.1958,-0.1873,-0.1873,-0.1873,0,0,-0.1953,-0.1975,-0.1986,-0.2017,-0.2026,-0.2051,-0.2039,-0.2052,-0.2068,-0.2026,-0.203,-0.2003,-0.1967,-0.1959,-0.1951,-0.194,-0.1959,-0.1932,-0.1936,-0.1938,-0.1952,-0.1961,-0.1968,-0.1874,-0.1874,-0.1874,0,0,-0.1956,-0.1972,-0.1995,-0.2015,-0.2043,-0.2052,-0.2061,-0.2076,-0.2077,-0.208,-0.2055,-0.2039,-0.2008,-0.1992,-0.1978,-0.1994,-0.1984,-0.1983,-0.2023,-0.2038,-0.2046,-0.2053,-0.2085,-0.2094,-0.1988,-0.1988,-0.1988,0,-0.1944,-0.1985,-0.1999,-0.2031,-0.2054,-0.2059,-0.2092,-0.2095,-0.21,-0.211,-0.2089,-0.2062,-0.2026,-0.2028,-0.2028,-0.2008,-0.2021,-0.2007,-0.2048,-0.2054,-0.206,-0.2091,-0.21,-0.1992,-0.1991,-0.1991,-0.1991,0,-0.1973,-0.2006,-0.202,-0.207,-0.209,-0.2117,-0.2141,-0.2155,-0.2155,-0.2163,-0.2165,-0.2121,-0.2108,-0.2093,-0.2061,-0.2083,-0.2083,-0.2055,-0.2039,-0.2074,-0.2104,-0.2112,-0.1997,-0.1996,-0.1995,-0.1994,0,0,-0.1949,-0.2028,-0.2033,-0.2071,-0.2119,-0.2141,-0.2176,-0.2214,-0.2246,-0.2232,-0.2267,-0.2218,-0.22,-0.2181,-0.2145,-0.2149,-0.2196,-0.2121,-0.212,-0.2167,-0.2253,-0.2263,-0.2273,-0.2182,-0.2183,-0.2184,-0.2267,0,-0.1969,-0.2037,-0.2073,-0.2136,-0.2177,-0.2209,-0.2246,-0.2277,-0.2292,-0.2323,-0.2291,-0.2293,-0.2234,-0.2225,-0.2224,-0.2196,-0.2217,-0.2177,-0.22,-0.2201,-0.2217,-0.2282,-0.2052,-0.2107,-0.2274,-0.2276,-0.2277,0,-0.1985,-0.2036,-0.2102,-0.2192,-0.2213,-0.2246,-0.2318,-0.2351,-0.2394,-0.2408,-0.2412,-0.2389,-0.2382,-0.2325,-0.2321,-0.2303,-0.2287,-0.2268,-0.2271,-0.2258,-0.2226,-0.2093,-0.2115,-0.229,-0.2289,-0.2288,-0.2287,0,-0.1962,-0.2055,-0.211,-0.214,-0.2235,-0.2269,-0.2312,-0.2369,-0.2409,-0.2454,-0.2485,-0.2479,-0.2471,-0.2452,-0.24,-0.237,-0.2411,-0.2364,-0.237,-0.2371,-0.2167,-0.2149,-0.2383,-0.2383,-0.2383,-0.2383,-0.2382,0,-0.1972,-0.2018,-0.2103,-0.2135,-0.2207,-0.2267,-0.2335,-0.2384,-0.2452,-0.2509,-0.2513,-0.2545,-0.25,-0.2508,-0.2459,-0.2452,-0.2462,-0.24,-0.2398,-0.2189,-0.2173,-0.2309,-0.23,-0.2386,-0.2385,-0.2384,-0.2384,0,-0.1941,-0.1997,-0.2068,-0.2168,-0.2197,-0.2242,-0.2343,-0.2395,-0.2462,-0.2538,-0.2552,-0.2602,-0.2619,-0.2592,-0.2573,-0.2531,-0.2516,-0.251,-0.2284,-0.2255,-0.2455,-0.2448,-0.2539,-0.254,-0.2541,-0.2542,-0.2543,0,-0.1934,-0.1962,-0.207,-0.2104,-0.2148,-0.2222,-0.2277,-0.2378,-0.2439,-0.2566,-0.2604,-0.2656,-0.2679,-0.2685,-0.259,-0.2552,-0.2574,-0.2357,-0.2255,-0.2485,-0.2474,-0.2465,-0.2457,-0.2015,-0.2011,-0.2008,-0.2006,0,-0.191,-0.194,-0.1995,-0.2063,-0.2124,-0.2201,-0.2287,-0.2338,-0.2465,-0.2536,-0.2637,-0.2667,-0.268,-0.2531,-0.249,-0.2422,-0.2344,-0.2302,-0.2586,-0.2029,-0.2002,-0.1988,-0.1994,-0.1979,-0.1981,-0.1983,-0.1985,-0.1986,-0.1868,-0.1892,-0.1942,-0.2008,-0.2076,-0.2137,-0.2153,-0.2242,-0.2316,-0.2341,-0.2514,-0.2458,-0.2463,-0.226,-0.2198,-0.2116,-0.2256,-0.213,-0.2134,-0.2141,-0.2084,-0.2063,-0.2041,-0.2043,-0.2046,-0.2048,-0.205,0,-0.179,-0.1829,-0.1879,-0.1935,-0.1947,-0.2031,-0.2123,-0.2063,-0.2074,-0.2124,-0.2152,-0.1959,-0.1913,-0.1918,-0.1755,-0.1781,-0.1691,-0.1721,-0.1569,-0.1598,-0.1623,-0.1533,-0.1346,-0.1344,-0.1343,-0.1341,0,0,-0.1743,-0.1745,-0.1773,-0.1762,-0.1804,-0.1746,-0.1761,-0.1694,-0.1665,-0.155,-0.1513,-0.1662,-0.1796,-0.1515,-0.1506,-0.1392,-0.1457,-0.1328,-0.1884,-0.1725,-0.1746,-0.1853,-0.1748,0,0,0,0,0]},{"header":{"parameterUnit":"m.s-1","parameterCategory":2,"la1":30.2991,"la2":30.254,"lo1":-89.0895,"lo2":-89.0444,"dy":0.0017,"dx":0.0017,"nx":28,"ny":28,"refTime":"2024-02-29T09:00:00:Z","depth":"2","parameterNumber":3,"parameterNumberName":"V-component_of_CURRENTS"},"data":[0,0,0,0,0,0,0,0,0,0,0,0,0,0,0,0,0,0,0,0,0,0,0,0,0,0,0,0,0,0,0,0,0,0,0,0,0,0,0,0,0,0,0,0,0,0,0,0,0,0,0,0,0,0,0,0,0,0,-0.0063,-0.0062,0,0.003,0.0031,0.0033,0.0089,0.0089,0.0089,0.0089,0.018,0.0183,0.0185,0,0,0,0,0,0,0,0,0,0,0,0,0,-0.0134,-0.0133,-0.0063,-0.0062,-0.0061,0.003,0.0031,0.0033,0.0089,0.0089,0.0089,0.0089,0.018,0.0182,0.0186,0,0,0,0,0,0,0,0,0,0,0,0,0,-0.0075,-0.0132,-0.0063,-0.0025,-0.0021,0.0029,0.0031,0.0033,0.0089,0.0089,0.0089,0.0089,0.0179,0.0182,0.0186,0.0212,0,0,0.0198,0.0199,0,0,0,0,0,0,0,0,-0.0078,-0.0072,-0.0032,-0.0028,-0.0023,0.0044,0.004,0.0092,0.0089,0.0051,0.0089,0.0088,0.0132,0.014,0.0163,0.0216,0.022,0.0198,0.02,0.0202,0.0203,0,0,0,0,0,0,0,-0.0082,-0.0075,-0.0022,-0.0031,-0.0026,0.0006,0.0015,0.005,0.0094,0.0055,0.0058,0.0062,0.0135,0.0159,0.0166,0.0222,0.0198,0.0201,0.0203,0.0205,0.0325,0.0326,0,0,0,0,0,0,-0.0105,-0.0079,-0.0025,-0.002,-0.0056,0.0007,0.0017,0.0026,0.0094,0.0103,0.0062,0.0064,0.0153,0.0161,0.0169,0.0212,0.0202,0.0205,0.0207,0.0324,0.0325,0.0326,0,0,0,0,0,0,-0.0106,-0.01,-0.0029,-0.0051,-0.004,0.0008,0.0018,0.0028,0.0053,0.0099,0.0109,0.0077,0.0153,0.0164,0.0207,0.0215,0.0207,0.021,0.0323,0.0325,0.0326,0.0292,0,0,0,0,0,0,-0.0109,-0.0101,-0.0102,-0.0052,-0.004,-0.0004,0.0018,0.0029,0.0054,0.0058,0.0115,0.0124,0.0154,0.0201,0.0211,0.022,0.0213,0.0322,0.0324,0.0325,0.0292,0.0292,0.0292,0,0,0,0,0,-0.0111,-0.0116,-0.0102,-0.0096,-0.0042,-0.0005,0.0005,0.0042,0.0054,0.0065,0.0108,0.0122,0.0219,0.0205,0.0216,0.0227,0.0321,0.0323,0.0325,0.0292,0.0292,0.0292,0,0,0,0,0,0,-0.015,-0.0109,-0.0094,-0.0086,-0.0051,0.0003,0.001,0.004,0.0084,0.0086,0.0134,0.0146,0.0187,0.0215,0.0198,0.0269,0.0272,0.0277,0.0243,0.0244,0.0244,0.0227,0.0217,0,0,0,0,0,-0.016,-0.0152,-0.0105,-0.0101,-0.0087,-0.0037,-0.0018,0.0009,0.0052,0.0072,0.0113,0.0159,0.0205,0.0229,0.0269,0.0306,0.0336,0.0322,0.0322,0.0322,0.0318,0.0375,0.0379,0.0333,0.0333,0.0333,0,0,-0.0177,-0.0153,-0.015,-0.0109,-0.008,-0.0061,-0.0025,-0.0001,0.0023,0.0073,0.0114,0.0158,0.0215,0.0259,0.028,0.0282,0.0353,0.0325,0.0324,0.032,0.0377,0.0382,0.0385,0.0335,0.0334,0.0334,0,0,-0.0212,-0.0184,-0.0189,-0.0158,-0.012,-0.0085,-0.008,-0.0025,0.0008,0.0052,0.0098,0.0149,0.0211,0.0262,0.0294,0.0321,0.0349,0.0331,0.0319,0.0375,0.0379,0.0382,0.0426,0.0434,0.0333,0.0332,0.0332,0,-0.0236,-0.0232,-0.0185,-0.0176,-0.0158,-0.01,-0.0096,-0.0049,0.0015,0.0044,0.0056,0.017,0.0216,0.0285,0.0295,0.032,0.0348,0.031,0.0373,0.0377,0.0382,0.0426,0.0435,0.0331,0.0331,0.0331,0.0332,0,-0.0266,-0.0261,-0.0262,-0.023,-0.0199,-0.0188,-0.0121,-0.0087,-0.0045,0.0007,0.008,0.0153,0.0219,0.0248,0.028,0.0339,0.0348,0.0363,0.0366,0.0384,0.043,0.044,0.0329,0.033,0.033,0.033,0,0,-0.0325,-0.0294,-0.0293,-0.0293,-0.0227,-0.021,-0.0164,-0.0105,-0.0078,0.0,0.0047,0.0143,0.0186,0.0226,0.0282,0.0335,0.0395,0.0355,0.0359,0.0386,0.0508,0.0572,0.0589,0.0416,0.0417,0.0418,0.0527,0,-0.0367,-0.0385,-0.0339,-0.0343,-0.0348,-0.0269,-0.0231,-0.0162,-0.0097,-0.0036,0.0068,0.0128,0.018,0.0207,0.0274,0.0366,0.042,0.0364,0.0497,0.0501,0.0547,0.0603,0.0484,0.0575,0.0537,0.0538,0.054,0,-0.0407,-0.0418,-0.0439,-0.0412,-0.0402,-0.0384,-0.0319,-0.0276,-0.0161,-0.0107,-0.0016,0.0066,0.0176,0.0203,0.0374,0.0333,0.0413,0.0482,0.0488,0.0566,0.0585,0.0554,0.0596,0.0557,0.0555,0.0554,0.0553,0,-0.0485,-0.048,-0.0508,-0.0496,-0.0451,-0.0437,-0.0406,-0.0306,-0.0272,-0.0155,-0.0116,0.003,0.0101,0.0227,0.039,0.0377,0.0569,0.0571,0.0705,0.0709,0.0645,0.0642,0.0679,0.0678,0.0678,0.0678,0.0678,0,-0.0545,-0.0564,-0.0554,-0.0568,-0.0594,-0.052,-0.0515,-0.0454,-0.0365,-0.0319,-0.0169,-0.0096,0.0108,0.0252,0.0383,0.0591,0.0571,0.0718,0.0753,0.0632,0.0627,0.0636,0.0629,0.0682,0.0681,0.068,0.068,0,-0.0622,-0.061,-0.065,-0.0637,-0.0635,-0.0654,-0.0613,-0.0606,-0.0498,-0.0435,-0.04,-0.0188,0.0025,0.0234,0.0459,0.0588,0.0768,0.0836,0.0684,0.0701,0.0866,0.0857,0.1001,0.1004,0.1007,0.1009,0.1011,0,-0.0662,-0.0694,-0.0727,-0.0764,-0.0764,-0.0778,-0.0786,-0.0694,-0.0668,-0.0484,-0.0455,-0.0225,-0.0037,0.034,0.0581,0.0844,0.085,0.0895,0.0866,0.0886,0.0905,0.089,0.0878,0.0756,0.0755,0.0755,0.0755,0,-0.0749,-0.0761,-0.0801,-0.0892,-0.0925,-0.095,-0.0941,-0.0934,-0.0798,-0.0704,-0.0521,-0.035,0.004,0.0328,0.0684,0.0809,0.0851,0.0904,0.0965,0.0709,0.0669,0.0683,0.0675,0.0753,0.0754,0.0754,0.0754,0.0754,-0.0812,-0.0874,-0.094,-0.1024,-0.1069,-0.1103,-0.1117,-0.1065,-0.1,-0.0825,-0.0622,-0.0357,-0.0023,0.0458,0.0705,0.0905,0.0924,0.0942,0.0936,0.0931,0.09,0.087,0.0984,0.0986,0.0987,0.0988,0.0989,0,-0.0896,-0.097,-0.1067,-0.1153,-0.1229,-0.1215,-0.1207,-0.118,-0.1099,-0.0903,-0.0695,-0.035,0.0016,0.0354,0.067,0.0913,0.0847,0.0931,0.0785,0.0785,0.0785,0.0741,0.0787,0.0787,0.0788,0.0789,0,0,-0.0941,-0.1061,-0.1122,-0.1279,-0.1334,-0.1388,-0.138,-0.13,-0.1163,-0.0974,-0.0776,-0.0452,-0.0009,0.0191,0.0473,0.0633,0.0638,0.0626,0.0751,0.0539,0.0537,0.0745,0.0674,0,0,0,0,0]}],[{"header":{"parameterUnit":"m.s-1","parameterCategory":2,"la1":30.2991,"la2":30.254,"lo1":-89.0895,"lo2":-89.0444,"dy":0.0017,"dx":0.0017,"nx":28,"ny":28,"refTime":"2024-02-29T09:00:00:Z","depth":"4","parameterNumber":2,"parameterNumberName":"U-component_of_CURRENTS"},"data":[0,0,0,0,0,0,0,0,0,0,0,0,0,0,0,0,0,0,0,0,0,0,0,0,0,0,0,0,0,0,0,0,0,0,0,0,0,0,0,0,0,0,0,0,0,0,0,0,0,0,0,0,0,0,0,0,0,0,-0.1224,-0.1224,0,-0.1269,-0.127,-0.127,-0.13,-0.13,-0.1301,-0.1301,-0.1307,-0.1307,-0.1306,0,0,0,0,0,0,0,0,0,0,0,0,0,-0.1133,-0.1135,-0.1224,-0.1225,-0.1225,-0.1269,-0.127,-0.127,-0.13,-0.13,-0.1301,-0.1301,-0.1307,-0.1307,-0.1306,0,0,0,0,0,0,0,0,0,0,0,0,0,-0.1172,-0.1135,-0.1224,-0.1248,-0.1251,-0.1269,-0.127,-0.127,-0.1299,-0.13,-0.1301,-0.1302,-0.1307,-0.1307,-0.1306,-0.1289,0,0,-0.1305,-0.1305,0,0,0,0,0,0,0,0,-0.117,-0.1175,-0.1243,-0.1246,-0.1249,-0.1282,-0.124,-0.1276,-0.1299,-0.1278,-0.1301,-0.1302,-0.1297,-0.1297,-0.13,-0.1289,-0.129,-0.1305,-0.1305,-0.1304,-0.1304,0,0,0,0,0,0,0,-0.1167,-0.1173,-0.1239,-0.1244,-0.1248,-0.1247,-0.1253,-0.1247,-0.1279,-0.1279,-0.1283,-0.1293,-0.1298,-0.13,-0.13,-0.129,-0.1305,-0.1305,-0.1304,-0.1304,-0.1321,-0.1322,0,0,0,0,0,0,-0.1169,-0.1171,-0.1237,-0.124,-0.1214,-0.1248,-0.1255,-0.1268,-0.128,-0.1284,-0.1292,-0.1294,-0.1301,-0.1301,-0.1301,-0.1348,-0.1304,-0.1304,-0.1304,-0.132,-0.1321,-0.1322,0,0,0,0,0,0,-0.1167,-0.1174,-0.1235,-0.1209,-0.1217,-0.125,-0.1264,-0.1269,-0.1296,-0.1291,-0.1293,-0.1317,-0.1301,-0.1301,-0.132,-0.1346,-0.1304,-0.1303,-0.1319,-0.132,-0.1321,-0.14,0,0,0,0,0,0,-0.1164,-0.1173,-0.1189,-0.1209,-0.1219,-0.1263,-0.1264,-0.127,-0.1301,-0.1305,-0.1313,-0.1313,-0.1302,-0.1321,-0.132,-0.1345,-0.1303,-0.1318,-0.132,-0.1321,-0.1397,-0.1404,-0.141,0,0,0,0,0,-0.1161,-0.1177,-0.119,-0.1198,-0.1238,-0.1264,-0.1269,-0.1291,-0.1302,-0.1318,-0.1327,-0.1314,-0.1328,-0.1322,-0.132,-0.1345,-0.1318,-0.1319,-0.1321,-0.1394,-0.1403,-0.141,0,0,0,0,0,0,-0.1144,-0.1182,-0.1197,-0.1225,-0.1251,-0.1271,-0.129,-0.1305,-0.1324,-0.1333,-0.1325,-0.1326,-0.135,-0.1334,-0.1327,-0.1352,-0.132,-0.1321,-0.1376,-0.1384,-0.139,-0.1399,-0.1303,0,0,0,0,0,-0.1148,-0.1174,-0.1206,-0.123,-0.1247,-0.1273,-0.1289,-0.1308,-0.1325,-0.1337,-0.1345,-0.1348,-0.135,-0.1358,-0.1353,-0.137,-0.1368,-0.1383,-0.139,-0.1396,-0.1401,-0.1421,-0.143,-0.1327,-0.1327,-0.1327,0,0,-0.115,-0.1174,-0.119,-0.1229,-0.1252,-0.1285,-0.1285,-0.132,-0.1351,-0.1332,-0.1378,-0.1372,-0.1358,-0.1379,-0.1388,-0.1375,-0.1427,-0.1398,-0.1403,-0.1405,-0.1423,-0.1434,-0.1443,-0.1328,-0.1328,-0.1328,0,0,-0.116,-0.1188,-0.1214,-0.1242,-0.1286,-0.1304,-0.1321,-0.1358,-0.138,-0.1416,-0.141,-0.1425,-0.1432,-0.1432,-0.1429,-0.1467,-0.1458,-0.1465,-0.1513,-0.1533,-0.1542,-0.155,-0.1577,-0.1586,-0.1473,-0.1473,-0.1473,0,-0.1161,-0.1202,-0.1225,-0.1259,-0.1291,-0.1318,-0.1358,-0.1381,-0.1421,-0.1447,-0.1442,-0.147,-0.1456,-0.1484,-0.1496,-0.1484,-0.1497,-0.1488,-0.1544,-0.1551,-0.1558,-0.1583,-0.1593,-0.1477,-0.1476,-0.1476,-0.1476,0,-0.1189,-0.1232,-0.1251,-0.1308,-0.1341,-0.138,-0.142,-0.146,-0.149,-0.1514,-0.1557,-0.1544,-0.1563,-0.1559,-0.1539,-0.1581,-0.1576,-0.1549,-0.1528,-0.1573,-0.1597,-0.1606,-0.1483,-0.1481,-0.148,-0.1479,0,0,-0.1164,-0.1255,-0.1265,-0.1309,-0.1376,-0.1407,-0.1467,-0.1527,-0.1579,-0.1605,-0.1665,-0.1659,-0.1661,-0.1656,-0.1638,-0.1652,-0.1708,-0.1627,-0.1627,-0.1663,-0.1768,-0.1668,-0.1668,-0.1698,-0.17,-0.1701,-0.1772,0,-0.1184,-0.1257,-0.1301,-0.1382,-0.1426,-0.1481,-0.1537,-0.1595,-0.164,-0.1702,-0.1703,-0.1739,-0.1696,-0.1711,-0.1721,-0.1706,-0.1731,-0.1692,-0.171,-0.1711,-0.1624,-0.1674,-0.1706,-0.1778,-0.178,-0.1782,-0.1783,0,-0.1192,-0.1247,-0.1327,-0.1436,-0.1462,-0.1516,-0.1621,-0.1675,-0.1756,-0.1793,-0.1833,-0.1835,-0.186,-0.1813,-0.1832,-0.1813,-0.1801,-0.1788,-0.179,-0.1672,-0.1626,-0.1718,-0.1798,-0.1797,-0.1796,-0.1795,-0.1794,0,-0.1155,-0.1265,-0.1334,-0.137,-0.1489,-0.1545,-0.1612,-0.1704,-0.1761,-0.1851,-0.19,-0.1929,-0.1948,-0.1941,-0.1903,-0.1881,-0.1924,-0.1887,-0.1794,-0.1787,-0.1822,-0.1813,-0.1912,-0.1912,-0.1912,-0.1912,-0.1912,0,-0.1147,-0.1208,-0.1329,-0.1366,-0.1462,-0.1545,-0.1647,-0.172,-0.1822,-0.1891,-0.194,-0.198,-0.1981,-0.1995,-0.1956,-0.19,-0.1968,-0.1814,-0.1799,-0.1855,-0.1848,-0.1829,-0.1819,-0.1914,-0.1914,-0.1913,-0.1913,0,-0.1094,-0.1173,-0.1262,-0.1398,-0.1447,-0.1512,-0.1662,-0.1728,-0.1835,-0.1928,-0.1958,-0.2034,-0.2044,-0.204,-0.2032,-0.1956,-0.1918,-0.1884,-0.1969,-0.1956,-0.1762,-0.1755,-0.1794,-0.1791,-0.1788,-0.1786,-0.1785,0,-0.1073,-0.1111,-0.1264,-0.1317,-0.1385,-0.1497,-0.1574,-0.1713,-0.1781,-0.1938,-0.197,-0.2034,-0.206,-0.1977,-0.1978,-0.1926,-0.1886,-0.1874,-0.179,-0.1768,-0.1751,-0.1747,-0.1743,-0.1781,-0.178,-0.1779,-0.1779,0,-0.1024,-0.1084,-0.1151,-0.1255,-0.1348,-0.1452,-0.1571,-0.1611,-0.1766,-0.1889,-0.1928,-0.1926,-0.1946,-0.1908,-0.1886,-0.1838,-0.1881,-0.1847,-0.1851,-0.1772,-0.1753,-0.1737,-0.1736,-0.177,-0.1771,-0.1772,-0.1773,0,-0.0978,-0.1006,-0.1087,-0.1176,-0.1285,-0.1359,-0.1444,-0.1529,-0.1612,-0.179,-0.1798,-0.1862,-0.1939,-0.1866,-0.1842,-0.1792,-0.1748,-0.1679,-0.169,-0.17,-0.1628,-0.1587,-0.1553,0,0,0,0,0,-0.0922,-0.0937,-0.1003,-0.1087,-0.1191,-0.1252,-0.1418,-0.1503,-0.1663,-0.1655,-0.1722,-0.1732,-0.1708,-0.1735,-0.1654,-0.1777,-0.1741,-0.1677,-0.1665,-0.1722,-0.1732,-0.165,0,0,0,0,0,0,-0.0879,-0.0923,-0.0956,-0.0988,-0.1022,-0.1125,-0.1221,-0.1337,-0.1347,-0.1506,-0.1494,-0.1619,-0.1603,-0.1705,-0.1606,-0.1615,-0.1575,-0.1727,-0.1723,-0.1716,-0.1725,-0.1733,-0.1653,0,0,0,0,0]},{"header":{"parameterUnit":"m.s-1","parameterCategory":2,"la1":30.2991,"la2":30.254,"lo1":-89.0895,"lo2":-89.0444,"dy":0.0017,"dx":0.0017,"nx":28,"ny":28,"refTime":"2024-02-29T09:00:00:Z","depth":"4","parameterNumber":3,"parameterNumberName":"V-component_of_CURRENTS"},"data":[0,0,0,0,0,0,0,0,0,0,0,0,0,0,0,0,0,0,0,0,0,0,0,0,0,0,0,0,0,0,0,0,0,0,0,0,0,0,0,0,0,0,0,0,0,0,0,0,0,0,0,0,0,0,0,0,0,0,-0.0242,-0.0241,0,-0.0179,-0.0178,-0.0177,-0.0139,-0.0139,-0.0139,-0.0139,-0.0076,-0.0074,-0.0072,0,0,0,0,0,0,0,0,0,0,0,0,0,-0.0285,-0.0285,-0.0242,-0.0241,-0.0241,-0.0179,-0.0178,-0.0177,-0.0139,-0.0139,-0.0139,-0.0139,-0.0076,-0.0074,-0.0072,0,0,0,0,0,0,0,0,0,0,0,0,0,-0.0246,-0.0285,-0.0242,-0.0217,-0.0214,-0.0179,-0.0178,-0.0177,-0.0139,-0.0139,-0.0139,-0.0139,-0.0077,-0.0074,-0.0072,-0.0053,0,0,-0.0064,-0.0062,0,0,0,0,0,0,0,0,-0.0249,-0.0244,-0.0221,-0.0218,-0.0215,-0.017,-0.017,-0.0136,-0.0139,-0.0164,-0.0139,-0.0139,-0.0109,-0.0103,-0.0087,-0.005,-0.0047,-0.0063,-0.0062,-0.0061,-0.006,0,0,0,0,0,0,0,-0.0251,-0.0247,-0.0214,-0.022,-0.0217,-0.0194,-0.0188,-0.0163,-0.0134,-0.0162,-0.016,-0.0158,-0.0107,-0.009,-0.0086,-0.0046,-0.0063,-0.0061,-0.0059,-0.0058,0.0039,0.004,0,0,0,0,0,0,-0.0267,-0.0249,-0.0216,-0.0212,-0.0236,-0.0193,-0.0187,-0.0182,-0.0135,-0.0128,-0.0158,-0.0156,-0.0094,-0.0089,-0.0083,-0.0045,-0.0061,-0.0058,-0.0057,0.0038,0.004,0.0041,0,0,0,0,0,0,-0.0268,-0.0264,-0.0219,-0.0232,-0.0225,-0.0193,-0.0187,-0.018,-0.0163,-0.0132,-0.0125,-0.0147,-0.0094,-0.0087,-0.0055,-0.0043,-0.0057,-0.0054,0.0037,0.0039,0.004,0.0022,0,0,0,0,0,0,-0.027,-0.0265,-0.0268,-0.0233,-0.0225,-0.0202,-0.0187,-0.0179,-0.0163,-0.016,-0.012,-0.0115,-0.0094,-0.0059,-0.0052,-0.004,-0.0052,0.0036,0.0038,0.004,0.0021,0.0022,0.0023,0,0,0,0,0,-0.0271,-0.0276,-0.0268,-0.0264,-0.0229,-0.0202,-0.0195,-0.0171,-0.0162,-0.0155,-0.0124,-0.0116,-0.0042,-0.0056,-0.0049,-0.0035,0.0035,0.0037,0.004,0.002,0.0022,0.0023,0,0,0,0,0,0,-0.0298,-0.0272,-0.0262,-0.0259,-0.0235,-0.0197,-0.0192,-0.0172,-0.014,-0.014,-0.0106,-0.0097,-0.0064,-0.0044,-0.0061,0.0001,-0.0001,0.0003,-0.0018,-0.0016,-0.0015,-0.0025,-0.005,0,0,0,0,0,-0.0306,-0.0303,-0.0271,-0.027,-0.026,-0.0225,-0.0212,-0.0194,-0.0163,-0.0149,-0.0119,-0.0084,-0.0047,-0.003,0.0001,0.0031,0.0058,0.0048,0.0049,0.005,0.0049,0.0104,0.011,0.0048,0.0048,0.0048,0,0,-0.0319,-0.0304,-0.0303,-0.0276,-0.0256,-0.0242,-0.0217,-0.02,-0.0182,-0.0148,-0.0116,-0.0082,-0.0038,-0.0002,0.0015,0.0015,0.0082,0.0053,0.0053,0.0051,0.0107,0.0113,0.0118,0.005,0.0049,0.0049,0,0,-0.0344,-0.0327,-0.0332,-0.031,-0.0284,-0.0259,-0.0256,-0.0215,-0.019,-0.0156,-0.0122,-0.0078,-0.0033,0.001,0.0035,0.0064,0.0085,0.0071,0.007,0.0124,0.0129,0.0134,0.0172,0.018,0.0073,0.0073,0.0073,0,-0.0362,-0.0361,-0.0329,-0.0322,-0.0309,-0.0269,-0.0265,-0.023,-0.0183,-0.0159,-0.0152,-0.0058,-0.0024,0.0038,0.0049,0.0066,0.0091,0.0057,0.0124,0.013,0.0135,0.0173,0.0182,0.0072,0.0073,0.0073,0.0073,0,-0.0383,-0.0381,-0.0381,-0.0359,-0.0337,-0.0329,-0.0279,-0.0254,-0.0222,-0.0181,-0.0118,-0.0059,-0.0004,0.002,0.0042,0.0102,0.0106,0.0116,0.0115,0.014,0.0178,0.0189,0.0072,0.0072,0.0072,0.0072,0,0,-0.0425,-0.0404,-0.0403,-0.0403,-0.0356,-0.0344,-0.0307,-0.0261,-0.0238,-0.0175,-0.0132,-0.0051,-0.0015,0.0017,0.0061,0.0112,0.0174,0.0125,0.0128,0.0152,0.0281,0.0254,0.0263,0.0191,0.0193,0.0195,0.0291,0,-0.0453,-0.0465,-0.0433,-0.0435,-0.0436,-0.0382,-0.0351,-0.0299,-0.0248,-0.0195,-0.0107,-0.0055,-0.0015,0.0009,0.0072,0.0149,0.02,0.0146,0.0262,0.0266,0.0231,0.0274,0.02,0.0299,0.0302,0.0303,0.0304,0,-0.0477,-0.0485,-0.0499,-0.048,-0.0472,-0.0463,-0.0413,-0.0379,-0.0285,-0.024,-0.0161,-0.0094,0.0005,0.0024,0.0177,0.0137,0.0205,0.0264,0.0269,0.0256,0.0258,0.0273,0.0323,0.0322,0.032,0.0319,0.0318,0,-0.0527,-0.0525,-0.0545,-0.0537,-0.0506,-0.0499,-0.0478,-0.04,-0.0371,-0.0272,-0.0236,-0.0108,-0.0046,0.0066,0.0196,0.0186,0.0354,0.0357,0.0399,0.0397,0.0398,0.0392,0.0458,0.0458,0.0458,0.0458,0.0457,0,-0.0559,-0.0575,-0.0579,-0.0588,-0.0609,-0.0557,-0.0555,-0.0507,-0.0436,-0.0395,-0.0271,-0.0209,-0.0034,0.0086,0.0196,0.0332,0.036,0.0407,0.0427,0.0388,0.038,0.0405,0.0398,0.0461,0.046,0.046,0.0459,0,-0.0599,-0.06,-0.0632,-0.0631,-0.0636,-0.0651,-0.063,-0.0621,-0.0538,-0.0481,-0.045,-0.0279,-0.0117,0.0053,0.0244,0.0322,0.0456,0.0493,0.0437,0.045,0.0462,0.0452,0.0551,0.0551,0.0551,0.0551,0.0551,0,-0.0617,-0.0641,-0.0683,-0.0717,-0.0724,-0.0741,-0.0751,-0.0687,-0.0664,-0.0521,-0.0492,-0.0322,-0.0195,0.006,0.0234,0.0448,0.0468,0.0531,0.0503,0.0465,0.0475,0.0465,0.0456,0.0551,0.0551,0.0551,0.0551,0,-0.0657,-0.068,-0.0712,-0.0791,-0.0828,-0.0855,-0.0855,-0.0842,-0.0742,-0.0674,-0.0519,-0.0353,-0.0167,0.0046,0.0215,0.0366,0.049,0.0531,0.0532,0.0506,0.0466,0.0474,0.0465,0.0551,0.0551,0.0551,0.0551,0,-0.0691,-0.0733,-0.079,-0.0851,-0.0913,-0.0942,-0.0932,-0.0878,-0.0834,-0.0658,-0.0612,-0.0378,-0.0231,0.0004,0.0162,0.031,0.0338,0.0367,0.0377,0.0379,0.0298,0.022,0.0254,0,0,0,0,0,-0.0717,-0.0771,-0.0843,-0.0908,-0.0972,-0.0999,-0.0986,-0.0953,-0.0854,-0.0762,-0.0679,-0.0498,-0.0219,-0.0084,0.0056,0.0139,0.0344,0.0304,0.0377,0.0551,0.0551,0.0482,0,0,0,0,0,0,-0.0738,-0.0813,-0.0851,-0.0944,-0.0995,-0.105,-0.1045,-0.0977,-0.0903,-0.0782,-0.0634,-0.0499,-0.0235,-0.0314,0.0043,0.0096,0.0154,0.0454,0.0456,0.055,0.0551,0.0551,0.048,0,0,0,0,0]}]]